Location: Unspecified
(0.0000°N, 0.0000°E)
Time: 05:59:15
(UTC+00:00)

METEOR M2 - Pass Details

Date: 09 July 2020
Orbit: 818 x 828 km, 98.5° (Epoch: 13 August)

Event Time Altitude Azimuth Distance (km) Brightness Sun altitude
Exits shadow 20:51:18 23° 260° (W) 1,680 ? -37.8°
Drops below altitude 10° 20:55:18 10° 309° (NW) 2,422 ? -38.7°
Sets 20:58:06 0° 323° (NW) 3,353 ? -39.3°
